Regional Weather Roundup
Issued by NWS

Home | Current Version | Previous Version | Graphics & Text | Print | Product List | Glossary On
Versions: 1 2 3 4 5 6 7 8 9 10 11 12 13 14 15 16 17 18 19 20 21 22 23 24 25 26 27 28 29 30 31 32 33 34 35 36 37 38 39 40 41 42 43 44 45 46 47 48 49 50
000
ASUS45 KBOI 251510
RWRID

IDAHO REGIONAL WEATHER ROUNDUP
NATIONAL WEATHER SERVICE BOISE ID
900 AM MDT MON MAY 25 2015

NOTE: "FAIR" INDICATES FEW OR NO CLOUDS BELOW 12000 FEET
WITH NO SIGNIFICANT WEATHER AND/OR OBSTRUCTIONS TO VISIBILITY

IDZ012-014-251600-
SOUTHWEST IDAHO


CITY           SKY/WX    TMP DP  RH WIND       PRES   REMARKS
BOISE          MOSUNNY   64  46  52 SE9       29.90R
CALDWELL       MOSUNNY   59  45  58 CALM      29.90S
MOUNTAIN HOME  PTSUNNY   60  49  67 SE9       29.91R
$$

IDZ016-017-251600-
SOUTHCENTRAL IDAHO


CITY           SKY/WX    TMP DP  RH WIND       PRES   REMARKS
BURLEY         MOSUNNY   56  48  74 CALM      29.94R
JEROME         MOSUNNY   56  46  69 E6        29.94S
TWIN FALLS     MOSUNNY   62  46  55 S9        29.92R
$$

IDZ019>023-251600-
SOUTHEAST IDAHO


CITY           SKY/WX    TMP DP  RH WIND       PRES   REMARKS
IDAHO FALLS    MOSUNNY   54  47  77 SW10      29.96S
POCATELLO      PTSUNNY   53  47  79 W7        29.97R
REXBURG        SUNNY     53  46  77 S7        29.96R
$$

IDZ006-010-011-018-031-032-251600-
CENTRAL IDAHO MOUNTAINS


CITY           SKY/WX    TMP DP  RH WIND       PRES   REMARKS
MCCALL         PTSUNNY   51  42  71 CALM      29.94S
HAILEY         MOSUNNY   52  43  71 NW8       29.99S
STANLEY          N/A     39  37  92 N3        30.02S
SALMON         CLOUDY    48  39  71 CALM      29.96S
CHALLIS        MOSUNNY   49  39  68 CALM      29.97S
$$

IDZ002-004-006-007-026-251600-
NORTHERN IDAHO


CITY           SKY/WX    TMP DP  RH WIND       PRES   REMARKS
LEWISTON       CLOUDY    61  53  75 SE7       29.88R
LOWELL           N/A     54  50  86 N3        29.91S
COEUR D`ALENE  CLOUDY    55  50  82 N10       29.88S
MULLAN PASS    CLOUDY    44  42  93 N3        29.95S
$$


USA.gov is the U.S. government's official web portal to all federal, state and local government web resources and services.